BEIJING 1 1 28890U 05043A 26145.17875807 .00000017 00000+0 12873-4 0 9992 2 28890 98.2878 278.2673 0014602 359.0693 1.0479 14.63515476 97283 HUANJING 1A (HJ-1A) 1 33320U 08041A 26145.17306172 .00000901 00000+0 11439-3 0 9999 2 33320 97.6678 131.9043 0017977 210.3726 149.6449 14.83924756954991 HUANJING 1B (HJ-1B) 1 33321U 08041B 26145.19929271 .00001328 00000+0 16708-3 0 9991 2 33321 97.6516 135.1702 0034702 258.7415 100.9898 14.83272634955009 YAOGAN-4 1 33446U 08061A 26145.09438513 .00000754 00000+0 98842-4 0 9996 2 33446 97.9304 78.7768 0015120 141.1994 219.0308 14.83148443942249 DEIMOS-1 1 35681U 09041A 26145.19281951 .00000272 00000+0 47259-4 0 9992 2 35681 97.7383 303.4209 0000241 93.7238 266.4000 14.75207902903492 UK-DMC 2 1 35683U 09041C 26145.17675373 .00000177 00000+0 32869-4 0 9992 2 35683 97.8802 280.7105 0001522 77.4845 282.6535 14.75982754903172 DMC3-FM1 1 40715U 15032A 26145.17210403 .00000472 00000+0 60334-4 0 9996 2 40715 97.6490 11.2462 0006691 120.0486 240.1394 14.85706695586499 DMC3-FM2 1 40716U 15032B 26145.19423744 .00001076 00000+0 12986-3 0 9993 2 40716 97.6546 12.8254 0007195 125.0167 235.1725 14.85714519586495 DMC3-FM3 1 40717U 15032C 26145.21740556 .00000378 00000+0 49497-4 0 9992 2 40717 97.6600 14.5861 0006379 123.2149 236.9679 14.85703308586506